[[{"header":{"parameterUnit":"m.s-1","parameterCategory":1,"la1":30.2991,"la2":30.254,"lo1":-89.0895,"lo2":-89.0444,"dy":0.0017,"dx":0.0017,"nx":28,"ny":28,"refTime":"2023-04-06T21:00:00:Z","depth":0,"parameterNumber":2,"parameterNumberName":"U-component_of_WINDS"},"data":[0,0,0,0,0,0,0,0,0,0,0,0,0,0,0,0,0,0,0,0,0,0,0,0,0,0,0,0,0,0,0,0,0,0,0,0,0,0,0,0,0,0,0,0,0,0,0,0,0,0,0,0,0,0,0,0,0,0,-3.1328,-3.1329,0,-3.1413,-3.1414,-3.1415,-3.1448,-3.1447,-3.1447,-3.1447,-3.1533,-3.1535,-3.1538,0,0,0,0,0,0,0,0,0,0,0,0,0,-3.1197,-3.1199,-3.1328,-3.1329,-3.133,-3.1413,-3.1414,-3.1415,-3.1448,-3.1447,-3.1447,-3.1447,-3.1532,-3.1535,-3.1538,0,0,0,0,0,0,0,0,0,0,0,0,0,-3.1265,-3.12,-3.1328,-3.1357,-3.136,-3.1412,-3.1414,-3.1415,-3.1448,-3.1447,-3.1447,-3.1447,-3.1531,-3.1535,-3.1539,-3.1569,0,0,-3.155,-3.1552,0,0,0,0,0,0,0,0,-3.1261,-3.127,-3.1351,-3.1355,-3.1359,-3.1419,-3.1399,-3.1467,-3.1448,-3.1414,-3.1447,-3.1447,-3.1495,-3.1502,-3.1519,-3.1573,-3.1576,-3.155,-3.1553,-3.1554,-3.1555,0,0,0,0,0,0,0,-3.1256,-3.1266,-3.1362,-3.1353,-3.1357,-3.1366,-3.1375,-3.1412,-3.1456,-3.1417,-3.142,-3.143,-3.1497,-3.1515,-3.1521,-3.1578,-3.155,-3.1554,-3.1556,-3.1557,-3.1663,-3.1664,0,0,0,0,0,0,-3.1247,-3.1262,-3.1359,-3.1364,-3.1308,-3.1369,-3.1379,-3.14,-3.1456,-3.1464,-3.143,-3.1431,-3.1509,-3.1517,-3.1524,-3.1564,-3.1554,-3.1558,-3.156,-3.1662,-3.1663,-3.1664,0,0,0,0,0,0,-3.1244,-3.1255,-3.1356,-3.1314,-3.1328,-3.1371,-3.1395,-3.1402,-3.142,-3.1465,-3.1473,-3.144,-3.1509,-3.1519,-3.1558,-3.1567,-3.1559,-3.1563,-3.1662,-3.1663,-3.1663,-3.1643,0,0,0,0,0,0,-3.124,-3.1254,-3.1265,-3.1314,-3.133,-3.1387,-3.1395,-3.1404,-3.1426,-3.1428,-3.1476,-3.1484,-3.1509,-3.1552,-3.1562,-3.1572,-3.1566,-3.1661,-3.1662,-3.1663,-3.1643,-3.1643,-3.1643,0,0,0,0,0,-3.1235,-3.1255,-3.1265,-3.1277,-3.1344,-3.1388,-3.1397,-3.1426,-3.1427,-3.1439,-3.1468,-3.1482,-3.1565,-3.1556,-3.1567,-3.1579,-3.1661,-3.1662,-3.1663,-3.1643,-3.1643,-3.1643,0,0,0,0,0,0,-3.1206,-3.1262,-3.1274,-3.1311,-3.1344,-3.1393,-3.1409,-3.1424,-3.1458,-3.1459,-3.1493,-3.1504,-3.154,-3.1564,-3.1552,-3.1612,-3.1614,-3.1618,-3.1595,-3.1596,-3.1596,-3.1589,-3.1569,0,0,0,0,0,-3.1204,-3.1234,-3.1282,-3.1309,-3.1326,-3.1365,-3.1384,-3.1404,-3.144,-3.1455,-3.1487,-3.1521,-3.1556,-3.1577,-3.1611,-3.1647,-3.1659,-3.1662,-3.1662,-3.1661,-3.1664,-3.1686,-3.1688,-3.1668,-3.1668,-3.1668,0,0,-3.1199,-3.1234,-3.125,-3.1305,-3.1333,-3.1364,-3.1376,-3.1408,-3.1432,-3.1459,-3.1498,-3.1524,-3.1565,-3.1603,-3.1622,-3.1624,-3.1672,-3.1663,-3.1662,-3.1665,-3.1688,-3.169,-3.1691,-3.1669,-3.1668,-3.1668,0,0,-3.1207,-3.1236,-3.1263,-3.1292,-3.1335,-3.1361,-3.1368,-3.1415,-3.1433,-3.1473,-3.1495,-3.1524,-3.1582,-3.1611,-3.1633,-3.1655,-3.167,-3.1665,-3.1665,-3.1687,-3.1688,-3.169,-3.1699,-3.1701,-3.1668,-3.1668,-3.1668,0,-3.1196,-3.1243,-3.1275,-3.1306,-3.133,-3.1358,-3.1386,-3.1412,-3.1464,-3.148,-3.1482,-3.1557,-3.1586,-3.1633,-3.1638,-3.1655,-3.1665,-3.1659,-3.1686,-3.1688,-3.169,-3.1698,-3.1701,-3.1667,-3.1667,-3.1667,-3.1667,0,-3.1228,-3.126,-3.1277,-3.1327,-3.1353,-3.1383,-3.142,-3.1442,-3.1461,-3.1487,-3.1529,-3.1566,-3.1608,-3.1621,-3.1639,-3.1671,-3.1671,-3.1679,-3.1681,-3.169,-3.1699,-3.1702,-3.1666,-3.1666,-3.1666,-3.1667,0,0,-3.1217,-3.1286,-3.1292,-3.1316,-3.1367,-3.1393,-3.1425,-3.1467,-3.1486,-3.1522,-3.155,-3.16,-3.1608,-3.1634,-3.1655,-3.1675,-3.1691,-3.1681,-3.1682,-3.1681,-3.173,-3.1723,-3.1726,-3.1702,-3.1703,-3.1703,-3.1726,0,-3.1231,-3.1289,-3.132,-3.1365,-3.1396,-3.1425,-3.1453,-3.1487,-3.1514,-3.1545,-3.1574,-3.1609,-3.1617,-3.1633,-3.1653,-3.1685,-3.1701,-3.1684,-3.1728,-3.173,-3.1716,-3.173,-3.1723,-3.1742,-3.173,-3.173,-3.1731,0,-3.1255,-3.1292,-3.1339,-3.1389,-3.1403,-3.1428,-3.147,-3.1499,-3.154,-3.1558,-3.1588,-3.161,-3.1646,-3.1647,-3.1698,-3.1685,-3.1706,-3.1724,-3.1726,-3.173,-3.173,-3.1735,-3.1749,-3.1752,-3.1736,-3.1736,-3.1735,0,-3.1243,-3.1304,-3.1341,-3.1361,-3.1419,-3.1436,-3.1461,-3.1502,-3.1526,-3.1563,-3.158,-3.1621,-3.1643,-3.1675,-3.1708,-3.1705,-3.1756,-3.1759,-3.1772,-3.1771,-3.178,-3.1778,-3.1797,-3.1794,-3.1794,-3.1794,-3.1794,0,-3.1256,-3.1284,-3.1336,-3.1359,-3.1392,-3.1428,-3.1461,-3.1488,-3.1525,-3.1554,-3.1582,-3.1609,-3.1651,-3.1684,-3.171,-3.1749,-3.1759,-3.1775,-3.1781,-3.1772,-3.1769,-3.1785,-3.1784,-3.1795,-3.1795,-3.1795,-3.1794,0,-3.1247,-3.1283,-3.1325,-3.1378,-3.1392,-3.1414,-3.146,-3.1483,-3.1512,-3.1549,-3.156,-3.1605,-3.1645,-3.1682,-3.1735,-3.1753,-3.1792,-3.18,-3.1778,-3.1781,-3.1792,-3.179,-3.182,-3.1826,-3.1819,-3.1819,-3.1819,0,-3.1252,-3.1275,-3.133,-3.1352,-3.1377,-3.1411,-3.1437,-3.1474,-3.1499,-3.1549,-3.1567,-3.161,-3.1645,-3.1708,-3.1746,-3.1788,-3.1797,-3.1805,-3.1803,-3.1794,-3.1797,-3.1795,-3.1798,-3.1804,-3.1804,-3.1804,-3.1804,0,-3.1258,-3.1276,-3.131,-3.1353,-3.1382,-3.1417,-3.1452,-3.1469,-3.1513,-3.1541,-3.1582,-3.161,-3.1665,-3.1707,-3.1754,-3.1781,-3.18,-3.1805,-3.181,-3.18,-3.1786,-3.1794,-3.1776,-3.1803,-3.1803,-3.1803,-3.1803,-3.1803,-3.1257,-3.1279,-3.1322,-3.136,-3.1392,-3.1425,-3.145,-3.1483,-3.1518,-3.1566,-3.1586,-3.1629,-3.1672,-3.1736,-3.1763,-3.1797,-3.1801,-3.1808,-3.181,-3.1811,-3.181,-3.1781,-3.1806,-3.1806,-3.1806,-3.1806,-3.1806,0,-3.1264,-3.1294,-3.1329,-3.1379,-3.141,-3.1426,-3.1467,-3.1492,-3.1529,-3.1567,-3.1602,-3.1651,-3.1693,-3.1735,-3.1779,-3.1798,-3.1809,-3.1809,-3.1807,-3.1813,-3.1804,-3.1795,-3.18,-3.18,-3.18,-3.18,-3.18,-3.18,-3.1272,-3.131,-3.1333,-3.1388,-3.1417,-3.1459,-3.1481,-3.1513,-3.1543,-3.1597,-3.1631,-3.1659,-3.1699,-3.1747,-3.1786,-3.1798,-3.1813,-3.181,-3.1824,-3.1814,-3.1814,-3.1814,-3.1806,-3.1813,-3.1813,-3.1831,-3.1831,-3.1832]},{"header":{"parameterUnit":"m.s-1","parameterCategory":1,"la1":30.2991,"la2":30.254,"lo1":-89.0895,"lo2":-89.0444,"dy":0.0017,"dx":0.0017,"nx":28,"ny":28,"refTime":"2023-04-06T21:00:00:Z","depth":0,"parameterNumber":3,"parameterNumberName":"V-component_of_WINDS"},"data":[0,0,0,0,0,0,0,0,0,0,0,0,0,0,0,0,0,0,0,0,0,0,0,0,0,0,0,0,0,0,0,0,0,0,0,0,0,0,0,0,0,0,0,0,0,0,0,0,0,0,0,0,0,0,0,0,0,0,3.6088,3.6088,0,3.6151,3.6151,3.6152,3.6206,3.6207,3.6207,3.6208,3.6269,3.627,3.6271,0,0,0,0,0,0,0,0,0,0,0,0,0,3.6012,3.6013,3.6088,3.6088,3.6089,3.6151,3.6151,3.6152,3.6206,3.6207,3.6207,3.6208,3.6268,3.627,3.6271,0,0,0,0,0,0,0,0,0,0,0,0,0,3.6057,3.6013,3.6087,3.6123,3.6127,3.615,3.6151,3.6153,3.6206,3.6207,3.6208,3.6208,3.6268,3.6269,3.6271,3.6262,0,0,3.6276,3.6277,0,0,0,0,0,0,0,0,3.6054,3.6059,3.6117,3.6121,3.6125,3.6172,3.6147,3.6189,3.6206,3.6176,3.6208,3.6209,3.6235,3.624,3.6249,3.6265,3.6268,3.6276,3.6277,3.6278,3.6278,0,0,0,0,0,0,0,3.6051,3.6057,3.6112,3.6118,3.6123,3.6136,3.6143,3.6155,3.62,3.6179,3.6183,3.619,3.6238,3.6248,3.6251,3.6269,3.6276,3.6277,3.6278,3.6279,3.6284,3.6283,0,0,0,0,0,0,3.6043,3.6054,3.611,3.6114,3.6091,3.6137,3.6145,3.6156,3.62,3.6207,3.6189,3.6192,3.6245,3.6249,3.6254,3.6249,3.6278,3.6279,3.628,3.6285,3.6284,3.6283,0,0,0,0,0,0,3.6041,3.6047,3.6108,3.6085,3.6094,3.6137,3.6149,3.6156,3.6167,3.6207,3.6215,3.6191,3.6246,3.6251,3.6261,3.6252,3.628,3.6281,3.6286,3.6284,3.6283,3.6237,0,0,0,0,0,0,3.6038,3.6046,3.6044,3.6085,3.6095,3.6114,3.6148,3.6157,3.617,3.6174,3.6212,3.6219,3.6247,3.6258,3.6262,3.6254,3.6282,3.6287,3.6285,3.6284,3.624,3.6235,3.623,0,0,0,0,0,3.6036,3.6027,3.6043,3.605,3.6093,3.6114,3.612,3.6153,3.6169,3.6167,3.6193,3.6217,3.6252,3.6259,3.6264,3.6256,3.6288,3.6286,3.6284,3.6242,3.6236,3.6231,0,0,0,0,0,0,3.5981,3.6033,3.6051,3.6056,3.608,3.6123,3.6121,3.6145,3.6164,3.6168,3.6207,3.6215,3.6221,3.6239,3.6246,3.6252,3.6273,3.6272,3.624,3.6234,3.6229,3.6225,3.6284,0,0,0,0,0,3.597,3.5983,3.6027,3.6027,3.6038,3.6077,3.6088,3.6112,3.6138,3.6148,3.6175,3.6199,3.6216,3.6226,3.6243,3.6243,3.6253,3.624,3.6235,3.6231,3.623,3.6234,3.623,3.6277,3.6277,3.6277,0,0,3.5946,3.5976,3.5981,3.6017,3.6038,3.6052,3.6086,3.6097,3.6107,3.615,3.6161,3.6182,3.6211,3.6217,3.6221,3.6232,3.6219,3.6229,3.6225,3.6227,3.6232,3.6227,3.6223,3.6276,3.6276,3.6276,0,0,3.591,3.5933,3.5937,3.5959,3.5992,3.6019,3.602,3.6059,3.6076,3.6088,3.6121,3.6133,3.616,3.6181,3.6195,3.6169,3.6193,3.6174,3.6149,3.6152,3.6148,3.6145,3.6138,3.6135,3.6172,3.6172,3.6172,0,3.5876,3.5898,3.5935,3.5946,3.5961,3.6002,3.6007,3.6026,3.6062,3.6072,3.6084,3.6122,3.6144,3.6156,3.615,3.6159,3.6162,3.617,3.6146,3.6143,3.6141,3.6135,3.6132,3.617,3.617,3.617,3.617,0,3.5855,3.587,3.5869,3.5906,3.5921,3.5928,3.5967,3.5977,3.6001,3.6026,3.6039,3.6068,3.6093,3.6097,3.6119,3.6113,3.612,3.6139,3.6161,3.6133,3.6128,3.6126,3.6166,3.6167,3.6168,3.6168,0,0,3.5785,3.5846,3.5845,3.5863,3.5904,3.5916,3.5926,3.5952,3.5961,3.5985,3.5995,3.6018,3.6037,3.6053,3.6077,3.608,3.6061,3.6099,3.6101,3.6093,3.6059,3.6046,3.6042,3.6077,3.6077,3.6076,3.6057,0,3.5758,3.5779,3.5814,3.5824,3.5839,3.588,3.5888,3.5914,3.5939,3.5955,3.5981,3.5998,3.602,3.603,3.6035,3.6062,3.6055,3.6064,3.6087,3.6087,3.608,3.6039,3.6025,3.6005,3.6055,3.6055,3.6055,0,3.5727,3.5752,3.5764,3.5807,3.5815,3.5822,3.5851,3.5865,3.5896,3.5914,3.5933,3.596,3.5973,3.5993,3.6012,3.6017,3.6029,3.6044,3.6044,3.6048,3.607,3.6044,3.5999,3.5997,3.6051,3.6052,3.6052,0,3.5678,3.5714,3.5727,3.5741,3.579,3.5795,3.5816,3.5848,3.5862,3.5887,3.5897,3.5921,3.5935,3.5954,3.5987,3.5999,3.6003,3.6025,3.6019,3.6018,3.6018,3.6018,3.5977,3.6023,3.6023,3.6023,3.6023,0,3.5644,3.565,3.5706,3.5714,3.5722,3.5763,3.577,3.5794,3.5823,3.5836,3.5871,3.5883,3.5926,3.5943,3.5969,3.5982,3.5987,3.6002,3.6009,3.6,3.5998,3.6008,3.6011,3.6023,3.6023,3.6023,3.6023,0,3.559,3.5628,3.5645,3.5691,3.5703,3.5708,3.5747,3.5756,3.5784,3.58,3.5806,3.5848,3.587,3.5906,3.5937,3.5955,3.5964,3.5974,3.5954,3.5958,3.595,3.5951,3.5915,3.5913,3.5959,3.5959,3.5958,0,3.5567,3.5573,3.5621,3.5634,3.5654,3.5673,3.5689,3.5729,3.5744,3.5781,3.5786,3.5811,3.5833,3.5866,3.5899,3.5924,3.5937,3.5923,3.5941,3.5932,3.5939,3.5939,3.5941,3.5919,3.5918,3.5917,3.5917,0,3.5522,3.5541,3.5563,3.5592,3.5611,3.5635,3.5662,3.5669,3.5716,3.5731,3.5755,3.5772,3.5806,3.583,3.586,3.5881,3.5907,3.5911,3.5911,3.5902,3.5891,3.5899,3.5944,3.5912,3.5912,3.5913,3.5913,3.5913,3.5484,3.5492,3.5529,3.5553,3.5577,3.5602,3.5614,3.5644,3.5665,3.5697,3.5719,3.5742,3.5774,3.5818,3.5837,3.5856,3.5867,3.5866,3.5867,3.5866,3.5864,3.5887,3.5861,3.5861,3.5861,3.5861,3.5861,0,3.5442,3.5468,3.549,3.5527,3.5547,3.5571,3.5602,3.5616,3.5637,3.5665,3.5688,3.5716,3.5741,3.5777,3.5804,3.5812,3.5825,3.5818,3.5819,3.5824,3.5851,3.5849,3.5808,3.5808,3.5808,3.5808,3.5808,3.5808,3.5423,3.544,3.5463,3.5493,3.5519,3.5543,3.5559,3.5582,3.5606,3.5636,3.5658,3.5682,3.5714,3.5745,3.5769,3.5779,3.5788,3.5778,3.5791,3.5816,3.5821,3.5826,3.5825,3.5779,3.5779,3.5763,3.5763,3.5763]}]]